| time (UTC) | temp F | wind direction | speed MPH | gust MPH | rain 1hr in | rain 24hr in | rain mn in | humidity % | barometer mb |
| 20260506061412 | 61 | 0.0 | 0.0 | 0.00 | 0.00 | 0.00 | 83 | 1009.4 | |
| 20260506051411 | 60 | 0.0 | 0.0 | 0.00 | 0.00 | 0.00 | 80 | 1009.5 | |
| 20260506043411 | 59 | 0.0 | 0.0 | 0.00 | 0.00 | 0.00 | 81 | 1009.5 | |
| 20260506041410 | 58 | 0.0 | 0.0 | 0.00 | 0.00 | 0.00 | 82 | 1009.9 | |
| 20260506035410 | 59 | 0.0 | 0.0 | 0.00 | 0.00 | 0.00 | 80 | 1010.0 | |
| 20260506033410 | 58 | 0.0 | 0.0 | 0.00 | 0.00 | 0.00 | 77 | 1009.9 | |
| 20260506031409 | 58 | 0.0 | 0.0 | 0.00 | 0.00 | 0.00 | 81 | 1009.8 | |
| 20260506025409 | 58 | 0.0 | 0.0 | 0.00 | 0.00 | 0.00 | 83 | 1010.1 | |
| 20260506023409 | 58 | 0.0 | 0.0 | 0.00 | 0.00 | 0.00 | 79 | 1010.8 | |
| 20260506021408 | 58 | 0.0 | 0.0 | 0.00 | 0.00 | 0.00 | 80 | 1011.0 | |
| 20260506015408 | 58 | 0.0 | 0.0 | 0.00 | 0.00 | 0.00 | 91 | 1010.9 | |
| 20260506013408 | 60 | 0.0 | 0.0 | 0.00 | 0.00 | 0.00 | 87 | 1011.7 | |
| 20260506011407 | 60 | 0.0 | 0.0 | 0.00 | 0.00 | 0.00 | 82 | 1011.5 | |
| 20260506005407 | 61 | 0.0 | 0.0 | 0.00 | 0.00 | 0.00 | 83 | 1011.2 | |
| 20260506003407 | 60 | 0.0 | 0.0 | 0.00 | 0.00 | 0.00 | 79 | 1011.7 | |
| 20260506001406 | 62 | 0.0 | 0.0 | 0.00 | 0.00 | 0.00 | 76 | 1011.4 | |
| 20260505235406 | 62 | 0.0 | 0.0 | 0.00 | 0.00 | 0.00 | 81 | 1011.5 | |
| 20260505233406 | 62 | 0.0 | 0.0 | 0.00 | 0.00 | 0.00 | 83 | 1012.1 | |
| 20260505231405 | 62 | 0.0 | 0.0 | 0.00 | 0.00 | 0.00 | 86 | 1012.5 | |
| 20260505225405 | 62 | 0.0 | 0.0 | 0.00 | 0.00 | 0.00 | 83 | 1012.7 | |
| 20260505223405 | 62 | 0.0 | 0.0 | 0.00 | 0.00 | 0.00 | 84 | 1013.0 | |
| 20260505221404 | 62 | 0.0 | 0.0 | 0.00 | 0.00 | 0.00 | 78 | 1013.2 | |
| 20260505215404 | 62 | 0.0 | 0.0 | 0.00 | 0.00 | 0.00 | 72 | 1013.0 | |
| 20260505213404 | 62 | 0.0 | 0.0 | 0.00 | 0.00 | 0.00 | 73 | 1013.3 | |
| 20260505211403 | 62 | 0.0 | 0.0 | 0.00 | 0.00 | 0.00 | 74 | 1013.4 | |
| 20260505205403 | 63 | 0.0 | 0.0 | 0.00 | 0.00 | 0.00 | 75 | 1013.5 | |
| 20260505203403 | 62 | 0.0 | 0.0 | 0.00 | 0.00 | 0.00 | 77 | 1013.7 | |
| 20260505201403 | 62 | 0.0 | 0.0 | 0.00 | 0.00 | 0.00 | 78 | 1013.8 | |
| 20260505195402 | 62 | 0.0 | 0.0 | 0.00 | 0.00 | 0.00 | 78 | 1013.9 | |
| 20260505193402 | 62 | 0.0 | 0.0 | 0.00 | 0.00 | 0.00 | 78 | 1013.8 | |
| 20260505191402 | 62 | 0.0 | 0.0 | 0.00 | 0.00 | 0.00 | 79 | 1013.7 | |
| 20260505185401 | 62 | 0.0 | 0.0 | 0.00 | 0.00 | 0.00 | 80 | 1013.4 | |
| 20260505183401 | 63 | 0.0 | 0.0 | 0.00 | 0.00 | 0.00 | 75 | 1013.6 | |
| 20260505181401 | 63 | 0.0 | 0.0 | 0.00 | 0.00 | 0.00 | 73 | 1013.6 | |
| 20260505175400 | 63 | 0.0 | 0.0 | 0.00 | 0.00 | 0.00 | 73 | 1013.5 | |
| 20260505173400 | 64 | 0.0 | 0.0 | 0.00 | 0.00 | 0.00 | 71 | 1013.4 | |
| 20260505171400 | 65 | 0.0 | 0.0 | 0.00 | 0.00 | 0.00 | 69 | 1013.4 | |
| 20260505165359 | 66 | 0.0 | 0.0 | 0.00 | 0.00 | 0.00 | 66 | 1013.4 | |
| 20260505163359 | 65 | 0.0 | 0.0 | 0.00 | 0.00 | 0.00 | 68 | 1013.4 | |
| 20260505161359 | 77 | 0.0 | 0.0 | 0.00 | 0.00 | 0.00 | 44 | 1013.4 | |
| 20260505153358 | 69 | 0.0 | 0.0 | 0.00 | 0.00 | 0.00 | 59 | 1013.6 | |
| 20260505151358 | 65 | 0.0 | 0.0 | 0.00 | 0.00 | 0.00 | 63 | 1013.8 | |
| 20260505123355 | 77 | 0.0 | 0.0 | 0.00 | 0.00 | 0.00 | 42 | 1013.7 | |
| 20260505121355 | 74 | 0.0 | 0.0 | 0.00 | 0.00 | 0.00 | 46 | 1013.8 | |
| 20260505115354 | 68 | 0.0 | 0.0 | 0.00 | 0.00 | 0.00 | 55 | 1013.9 | |
| 20260505113354 | 71 | 0.0 | 0.0 | 0.00 | 0.00 | 0.00 | 49 | 1013.7 | |
| 20260505111354 | 73 | 0.0 | 0.0 | 0.00 | 0.00 | 0.00 | 48 | 1013.7 | |
| 20260505101353 | 67 | 0.0 | 0.0 | 0.00 | 0.00 | 0.00 | 61 | 1013.7 | |
| 20260505095353 | 68 | 0.0 | 0.0 | 0.00 | 0.00 | 0.00 | 65 | 1013.5 | |
| 20260505093352 | 63 | 0.0 | 0.0 | 0.00 | 0.00 | 0.00 | 72 | 1013.5 | |
| 20260505091352 | 63 | 0.0 | 0.0 | 0.00 | 0.00 | 0.00 | 72 | 1013.3 | |
| 20260505085352 | 61 | 0.0 | 0.0 | 0.00 | 0.00 | 0.00 | 74 | 1013.5 | |
| 20260505083351 | 61 | 0.0 | 0.0 | 0.00 | 0.00 | 0.00 | 76 | 1013.3 | |
| 20260505081351 | 61 | 0.0 | 0.0 | 0.00 | 0.00 | 0.00 | 79 | 1013.5 | |
| 20260505075351 | 61 | 0.0 | 0.0 | 0.00 | 0.00 | 0.00 | 76 | 1013.1 | |
| 20260505073350 | 60 | 0.0 | 0.0 | 0.00 | 0.00 | 0.00 | 77 | 1013.4 | |
| 20260505071350 | 61 | 0.0 | 0.0 | 0.00 | 0.00 | 0.00 | 77 | 1013.1 |